Stations météo

réclame
Mon MeteoGroup
Barth, Allemagne (10180): Température de l'air & dewpoint: 15.05.2018 01:00:00 - 21.05.2018 01:00:00 (CEST)Barth, Allemagne (10180): Température de l'air 5cm & Température de l'air -5cm: 15.05.2018 01:00:00 - 21.05.2018 01:00:00 (CEST)Barth, Allemagne (10180): Température de l'air -20cm & Température de l'air -100cm: 15.05.2018 01:00:00 - 21.05.2018 01:00:00 (CEST)Barth, Allemagne (10180): Vitesse du vent & gusts: 15.05.2018 01:00:00 - 21.05.2018 01:00:00 (CEST)Barth, Allemagne (10180): Direction du vent: 15.05.2018 01:00:00 - 21.05.2018 01:00:00 (CEST)Barth, Allemagne (10180): reduced air pressure: 15.05.2018 01:00:00 - 21.05.2018 01:00:00 (CEST)Barth, Allemagne (10180): visibility: 15.05.2018 01:00:00 - 21.05.2018 01:00:00 (CEST)Barth, Allemagne (10180): Ensoleillement: 15.05.2018 01:00:00 - 21.05.2018 01:00:00 (CEST)Barth, Allemagne (10180): Quantités de précipitations: 15.05.2018 01:00:00 - 21.05.2018 01:00:00 (CEST)
Date & Time tt [°C] td [°C] tt 5cm [°C] tt -5cm [°C] tt -20cm [°C] tt -100cm [°C] ff [km/h] ff [knt] fx [km/h] fx [knt] dd ppp [hPa] vv [km] sd [min] rr [mm]
21.05.2018 01:00:00 7,4 6,2 4,4 10,0 15,4 11,9 9 5 14 8 E 1027,0 45 0 0,0
21.05.2018 00:00:00 7,3 5,6 3,3 10,9 16,1 11,9 6 3 15 8 ENE 1027,0 61 0 0,0
20.05.2018 23:00:00 9,3 6,2 7,2 11,9 16,8 11,9 13 7 23 13 E 1027,0 70 0 0,0
20.05.2018 22:00:00 10,6 4,5 8,9 13,0 17,5 11,9 18 10 25 13 E 1027,1 70 8 0,0
20.05.2018 21:00:00 11,1 4,0 8,9 15,2 18,1 11,9 13 7 25 13 E 1026,6 70 60 0,0
20.05.2018 20:00:00 14,5 2,7 14,3 17,5 18,6 11,9 19 11 28 15 E 1026,4 52 60 0,0
20.05.2018 19:00:00 15,9 3,2 17,0 19,9 18,9 11,8 21 12 33 18 ENE 1026,7 32 60 0,0
20.05.2018 18:00:00 16,9 4,6 18,8 22,0 19,0 11,8 23 12 35 19 ENE 1026,9 18 60 0,0
20.05.2018 17:00:00 17,8 4,8 20,3 24,0 18,8 11,8 21 11 31 17 E 1027,4 13 60 0,0
20.05.2018 16:00:00 17,9 5,4 21,5 24,9 18,3 11,8 19 11 32 17 E 1027,6 20 60 0,0
20.05.2018 15:00:00 18,3 6,6 22,1 25,4 17,6 11,8 20 11 30 16 E 1027,7 23 60 0,0
20.05.2018 14:00:00 18,4 8,6 23,1 25,3 16,8 11,8 16 9 32 18 E 1028,0 22 60 0,0
20.05.2018 13:00:00 18,0 6,5 22,3 24,2 15,8 11,8 18 10 31 17 E 1028,3 33 60 0,0
20.05.2018 12:00:00 17,8 5,0 22,4 22,6 14,9 11,8 16 9 31 17 ESE 1028,3 18 60 0,0
20.05.2018 11:00:00 17,8 5,2 21,7 20,6 13,9 11,8 16 9 24 13 E 1028,2 28 60 0,0
20.05.2018 10:00:00 16,8 5,8 19,8 18,5 13,1 11,8 13 7 19 10 ESE 1028,2 25 60 0,0
20.05.2018 09:00:00 15,1 6,9 18,6 15,6 12,5 11,8 7 4 17 9 E 1028,2 42 60 0,0
20.05.2018 08:00:00 13,7 7,7 16,2 12,6 12,2 11,8 0 0 4 2 N 1028,0 58 60 0,0
20.05.2018 07:00:00 8,8 5,3 11,1 9,3 12,3 11,8 2 1 3 1 E 1027,6 46 60 0,0
20.05.2018 06:00:00 3,8 2,7 2,7 7,3 12,7 11,8 2 1 8 4 NW 1027,1 38 28 0,0
20.05.2018 05:00:00 2,6 1,8 0,2 7,4 13,2 11,8 0 0 4 2 N 1026,7 46 0 0,0
20.05.2018 04:00:00 3,4 2,2 0,4 8,0 13,7 11,8 3 1 4 2 N 1026,7 58 0 0,0
20.05.2018 03:00:00 4,7 2,8 1,5 8,6 14,3 11,8 3 2 8 5 S 1026,5 66 0 0,0
20.05.2018 02:00:00 5,1 3,4 1,6 9,4 14,9 11,8 2 1 4 2 S 1026,5 55 0 0,0
20.05.2018 01:00:00 4,8 3,5 2,8 10,3 15,5 11,8 0 0 3 2 N 1026,2 64 0 0,0
20.05.2018 00:00:00 7,6 4,7 3,8 11,3 16,1 11,8 3 1 14 7 SSW 1025,9 70 0 0,0
19.05.2018 23:00:00 8,7 4,5 4,9 12,3 16,7 11,8 9 5 13 7 SE 1025,7 70 0 0,0
19.05.2018 22:00:00 9,4 5,4 6,0 13,6 17,4 11,8 8 5 11 6 ESE 1025,4 70 0 0,0
19.05.2018 21:00:00 10,9 5,2 8,8 15,3 18,0 11,8 11 6 21 11 ESE 1024,8 70 56 0,0
19.05.2018 20:00:00 14,5 5,6 14,6 17,7 18,4 11,8 14 8 22 12 E 1024,4 50 60 0,0
19.05.2018 19:00:00 15,9 6,0 17,0 19,6 18,6 11,8 17 9 26 14 E 1024,2 33 60 0,0
19.05.2018 18:00:00 17,4 7,0 19,4 21,6 18,5 11,8 21 12 27 15 E 1024,3 23 60 0,0
19.05.2018 17:00:00 18,5 6,0 21,1 23,2 18,3 11,7 17 9 26 14 E 1024,1 26 60 0,0
19.05.2018 16:00:00 18,5 5,2 21,7 23,7 17,8 11,7 21 11 28 15 E 1024,2 18 60 0,0
19.05.2018 15:00:00 18,5 5,4 22,7 23,9 17,1 11,7 18 10 28 15 E 1024,1 30 60 0,0
19.05.2018 14:00:00 18,0 6,1 22,5 23,4 16,4 11,7 18 10 28 15 E 1024,2 20 60 0,0
19.05.2018 13:00:00 16,9 6,4 20,0 20,5 15,8 11,7 18 10 24 13 E 1024,2 41 8 0,0
19.05.2018 12:00:00 16,7 5,5 19,1 21,3 15,0 11,7 14 7 23 12 ESE 1024,2 51 51 0,0
19.05.2018 11:00:00 16,2 5,1 21,1 18,5 14,5 11,7 13 7 19 10 SSE 1024,0 54 14 0,0
19.05.2018 10:00:00 14,1 4,7 15,0 16,4 14,1 11,7 11 6 20 11 SE 1023,9 70 27 0,0
19.05.2018 09:00:00 14,2 6,1 18,5 15,0 13,8 11,7 8 4 16 8 SE 1023,7 46 21 0,0
19.05.2018 08:00:00 12,5 7,9 13,2 13,5 13,7 11,7 6 3 10 5 ESE 1023,2 69 27 0,0
19.05.2018 07:00:00 12,3 8,5 15,4 12,7 13,7 11,7 2 1 5 3 NE 1022,6 38 50 0,0
19.05.2018 06:00:00 6,2 5,4 6,1 10,2 14,1 11,7 0 0 3 1 N 1022,2 23 0 0,0
19.05.2018 05:00:00 6,2 5,9 4,4 10,3 14,6 11,7 2 1 4 2 WSW 1022,0 26 0 0,0
19.05.2018 04:00:00 7,4 5,3 4,9 11,1 15,0 11,7 5 3 9 5 E 1021,9 31 0 0,0
19.05.2018 03:00:00 8,0 6,6 5,9 12,0 15,5 11,7 10 6 12 6 E 1021,7 30 0 0,0
19.05.2018 02:00:00 10,3 9,1 8,1 13,4 15,8 11,7 3 2 4 2 N 1021,4 21 0 0,0
19.05.2018 01:00:00 13,1 9,6 12,2 14,7 16,0 11,7 3 1 5 3 SE 1021,4 32 0 0,0
19.05.2018 00:00:00 13,4 9,9 13,0 15,1 16,3 11,7 1 1 10 6 SE 1021,3 33 0 0,0
18.05.2018 23:00:00 13,8 10,5 13,5 15,5 16,6 11,7 6 3 11 6 SE 1021,1 23 0 0,0
18.05.2018 22:00:00 13,5 11,0 13,3 16,0 16,8 11,7 5 3 10 6 ESE 1020,9 19 0 0,0
18.05.2018 21:00:00 14,2 12,4 14,3 16,7 17,1 11,7 3 1 4 2 W 1020,5 21 0 0,0
18.05.2018 20:00:00 14,5 11,4 14,8 17,3 17,3 11,7 3 1 9 5 WSW 1020,0 25 0 0,0
18.05.2018 19:00:00 14,9 10,8 15,8 18,1 17,6 11,7 6 4 14 7 WNW 1019,7 28 0 0,0
18.05.2018 18:00:00 14,7 10,8 16,0 18,7 17,7 11,7 11 6 21 11 W 1019,5 20 0 0,0
18.05.2018 17:00:00 15,1 10,7 16,5 20,3 17,7 11,7 13 7 19 11 W 1019,4 15 0 0,0
18.05.2018 16:00:00 15,8 11,9 19,1 21,8 17,3 11,6 12 7 21 11 NW 1019,2 13 17 0,0
18.05.2018 15:00:00 15,5 12,2 20,5 22,9 16,7 11,6 11 6 22 12 WNW 1019,1 9 30 0,0
18.05.2018 14:00:00 15,7 12,2 21,7 23,2 15,9 11,6 17 9 24 13 WNW 1018,9 10 34 0,0
18.05.2018 13:00:00 15,6 12,5 20,6 21,2 15,2 11,6 14 8 21 11 W 1018,9 9 26 0,0
18.05.2018 12:00:00 14,2 11,8 16,8 18,1 14,8 11,6 14 8 20 11 W 1018,7 9 5 0,0
18.05.2018 11:00:00 13,6 11,7 15,8 16,3 14,5 11,6 14 7 19 11 WNW 1018,4 8 0 0,0
18.05.2018 10:00:00 13,4 11,4 15,0 15,7 14,3 11,6 11 6 22 12 W 1017,8 9 0 0,0
18.05.2018 09:00:00 13,1 11,5 14,3 15,2 14,1 11,6 14 7 23 12 W 1017,4 8 7 0,0
18.05.2018 08:00:00 13,4 11,6 14,5 14,4 13,9 11,6 12 7 18 10 W 1016,7 11 0 0,0
18.05.2018 07:00:00 12,8 11,8 13,2 13,1 13,9 11,6 10 6 17 9 W 1016,4 5 0 0,0
18.05.2018 06:00:00 12,0 11,7 11,8 12,1 14,1 11,6 10 6 21 11 W 1016,1 3,0 0 0,0
18.05.2018 05:00:00 11,8 11,2 10,9 12,2 14,3 11,6 10 6 18 10 W 1016,0 2,9 0 0,0
18.05.2018 04:00:00 12,0 11,4 11,6 12,1 14,4 11,6 12 7 19 10 W 1015,8 3,5 0 0,0
18.05.2018 03:00:00 11,9 11,1 11,4 11,9 14,7 11,6 12 6 23 12 W 1015,8 3,8 0 0,0
18.05.2018 02:00:00 11,3 10,4 10,4 11,7 15,1 11,6 18 10 25 14 W 1015,4 5 0 0,0
18.05.2018 01:00:00 11,5 10,1 10,5 12,1 15,5 11,6 18 10 27 15 W 1015,7 8 0 0,0
18.05.2018 00:00:00 11,6 10,0 10,6 12,6 16,0 11,6 19 11 31 17 W 1015,8 9 0 0,0
17.05.2018 23:00:00 12,0 10,8 11,0 13,3 16,5 11,6 17 9 23 12 W 1015,8 7 0 0,0
17.05.2018 22:00:00 12,9 10,4 11,7 14,2 17,0 11,6 13 7 29 16 W 1015,6 12 0 0,0
17.05.2018 21:00:00 13,8 10,4 13,0 15,5 17,4 11,6 20 11 31 17 WNW 1015,0 15 27 0,0
17.05.2018 20:00:00 14,9 10,7 15,3 17,2 17,7 11,5 20 11 33 18 W 1014,7 12 60 0,0
17.05.2018 19:00:00 15,4 10,2 16,8 18,7 17,9 11,5 25 13 40 22 W 1014,6 14 60 0,0
17.05.2018 18:00:00 15,7 9,1 17,7 19,9 17,9 11,5 27 15 41 22 W 1014,3 9 60 0,0
17.05.2018 17:00:00 16,2 8,9 18,5 20,7 17,9 11,5 25 13 41 22 W 1014,5 9 49 0,0
17.05.2018 16:00:00 14,6 9,6 16,3 20,0 17,9 11,5 28 15 42 23 W 1014,4 13 7 0,0
17.05.2018 15:00:00 15,4 9,8 19,0 22,2 17,6 11,5 30 16 43 23 W 1014,6 12 50 0,0
17.05.2018 14:00:00 14,4 10,8 19,2 22,8 17,0 11,5 28 15 38 21 WNW 1014,5 11 59 0,0
17.05.2018 13:00:00 15,2 11,2 20,1 22,7 16,3 11,5 25 14 36 20 W 1014,4 7 60 0,0
17.05.2018 12:00:00 15,8 12,0 20,7 21,6 15,6 11,5 21 11 30 16 W 1014,5 11 57 0,0
17.05.2018 11:00:00 14,6 10,8 17,1 20,0 14,9 11,5 23 12 31 17 W 1014,2 15 56 0,0
17.05.2018 10:00:00 15,3 11,4 19,6 18,6 14,3 11,5 13 7 23 12 WNW 1013,8 14 60 0,0
17.05.2018 09:00:00 14,8 11,5 18,7 16,3 13,9 11,5 15 8 24 13 WNW 1013,7 17 60 0,0
17.05.2018 08:00:00 14,1 11,4 16,9 13,9 13,7 11,5 13 7 23 12 WNW 1013,4 22 52 0,0
17.05.2018 07:00:00 12,9 11,0 14,0 12,3 13,8 11,5 14 8 23 12 NW 1013,2 17 60 0,0
17.05.2018 06:00:00 11,8 10,5 10,7 11,0 14,1 11,5 12 6 21 11 NW 1013,1 15 3 0,0
17.05.2018 05:00:00 8,9 8,3 6,5 10,8 14,4 11,5 7 4 12 7 W 1013,0 5 0 0,0
17.05.2018 04:00:00 9,8 8,4 7,7 11,5 14,8 11,4 6 4 11 6 NW 1012,9 8 0 0,0
17.05.2018 03:00:00 12,7 9,6 10,2 12,2 15,1 11,4 8 4 26 14 N 1012,9 21 0 0,0
17.05.2018 02:00:00 14,8 10,2 12,5 12,7 15,4 11,4 13 7 23 12 N 1012,9 26 0 0,0
17.05.2018 01:00:00 14,6 10,4 12,8 12,9 15,8 11,4 11 6 20 11 NNW 1012,9 21 0 0,0
17.05.2018 00:00:00 15,4 8,8 13,4 13,3 16,3 11,4 13 7 23 13 NNW 1013,0 34 0 0,0
16.05.2018 23:00:00 15,2 8,3 13,3 13,8 16,7 11,4 13 7 19 10 NW 1013,0 33 0 0,0
16.05.2018 22:00:00 15,8 8,2 13,9 14,8 17,2 11,4 12 7 21 11 NW 1012,9 33 0 0,0
16.05.2018 21:00:00 16,9 8,9 16,2 16,5 17,5 11,4 13 7 18 10 NNW 1012,9 34 40 0,0
16.05.2018 20:00:00 16,3 10,1 16,9 17,8 17,8 11,4 12 6 16 9 NW 1012,8 30 59 0,0
16.05.2018 19:00:00 17,8 9,7 18,9 19,2 17,9 11,4 6 3 13 7 NE 1012,9 32 28 0,0
16.05.2018 18:00:00 17,1 9,7 18,3 19,4 18,0 11,4 9 5 15 8 NNW 1013,0 27 0 0,0
16.05.2018 17:00:00 16,7 9,8 18,5 20,0 18,1 11,4 8 4 16 9 N 1013,5 25 0 0,0
16.05.2018 16:00:00 17,5 9,1 19,1 22,3 17,7 11,4 10 6 19 10 N 1013,9 33 35 0,0
16.05.2018 15:00:00 17,0 11,1 21,3 21,4 17,5 11,4 8 4 17 9 NNW 1014,1 24 16 0,0
16.05.2018 14:00:00 15,4 10,4 19,5 20,0 17,4 11,4 9 5 16 9 N 1014,4 18 0 0,0
16.05.2018 13:00:00 15,8 10,1 19,0 21,5 17,0 11,3 10 5 19 11 N 1014,5 26 4 0,0
16.05.2018 12:00:00 17,4 9,7 23,6 23,9 16,2 11,3 13 7 21 12 NNW 1014,4 29 41 0,0
16.05.2018 11:00:00 17,6 9,4 22,3 22,0 15,4 11,3 14 8 21 12 NNE 1014,1 22 41 0,0
16.05.2018 10:00:00 18,0 9,8 22,9 19,9 14,7 11,3 10 5 18 10 NE 1014,2 32 59 0,0
16.05.2018 09:00:00 16,8 9,7 21,3 17,3 14,3 11,3 8 4 12 7 N 1014,1 27 51 0,0
16.05.2018 08:00:00 15,0 10,9 16,9 14,8 14,1 11,3 4 2 10 5 N 1014,2 19 22 0,0
16.05.2018 07:00:00 11,9 10,7 12,3 12,7 14,3 11,3 3 2 9 5 NNW 1014,4 7 0 0,0
16.05.2018 06:00:00 10,7 9,3 9,4 11,9 14,5 11,3 4 2 13 7 NNW 1014,3 8 0 0,0
16.05.2018 05:00:00 9,8 9,0 8,9 12,1 14,8 11,3 6 4 9 5 NNW 1014,0 7 0 0,0
16.05.2018 04:00:00 10,7 9,5 8,8 12,6 15,1 11,3 7 4 13 7 NW 1014,3 11 0 0,0
16.05.2018 03:00:00 14,1 9,7 12,7 13,4 15,3 11,3 8 4 15 8 NNE 1014,7 28 0 0,0
16.05.2018 02:00:00 14,3 10,0 13,3 13,6 15,6 11,3 10 5 19 10 N 1015,0 23 0 0,0
16.05.2018 01:00:00 13,4 10,1 12,6 13,8 15,9 11,3 10 6 23 12 NNE 1015,4 17 0 0,0
16.05.2018 00:00:00 13,0 10,0 12,3 14,0 16,2 11,2 9 5 14 8 NNE 1015,7 13 0 0,0
15.05.2018 23:00:00 12,5 10,7 11,7 14,4 16,6 11,2 13 7 20 11 N 1015,7 10 0 0,0
15.05.2018 22:00:00 13,6 11,6 13,2 15,6 16,9 11,2 7 4 9 5 NNW 1015,4 11 0 0,0
15.05.2018 21:00:00 14,4 12,2 14,1 16,2 17,2 11,2 7 4 17 9 NNE 1015,5 11 0 0,0
15.05.2018 20:00:00 14,1 11,4 14,2 16,8 17,6 11,2 10 6 18 10 NE 1015,4 11 0 0,0
15.05.2018 19:00:00 14,7 10,7 15,3 17,8 17,8 11,2 13 7 27 14 NE 1015,3 17 0 0,0
15.05.2018 18:00:00 16,9 9,5 19,4 20,3 17,7 11,2 13 7 25 13 NNE 1015,7 29 37 0,0
15.05.2018 17:00:00 17,8 6,1 19,3 20,4 17,6 11,2 16 9 26 14 NNE 1016,2 40 32 0,0
15.05.2018 16:00:00 16,8 8,5 19,4 19,3 17,6 11,2 11 6 18 10 N 1016,5 29 1 0,0
15.05.2018 15:00:00 15,4 8,4 18,5 19,4 17,7 11,2 12 7 22 12 NNW 1017,3 25 0 0,0
15.05.2018 14:00:00 16,2 9,9 18,5 21,3 17,4 11,1 16 9 26 14 NE 1017,9 26 4 0,0
15.05.2018 13:00:00 16,5 10,4 20,0 22,4 16,8 11,1 16 9 24 13 NNE 1018,0 22 22 0,0
15.05.2018 12:00:00 18,9 8,9 25,9 23,6 15,9 11,1 14 7 22 12 NNE 1018,1 37 47 0,0
15.05.2018 11:00:00 17,8 9,5 23,7 21,8 15,1 11,1 18 10 25 13 NNE 1018,4 24 60 0,0
15.05.2018 10:00:00 17,7 8,6 20,8 19,2 14,4 11,1 14 8 24 13 NE 1018,3 26 60 0,0
15.05.2018 09:00:00 16,6 11,3 20,5 16,9 13,9 11,1 10 6 18 10 NNE 1018,3 27 60 0,0
15.05.2018 08:00:00 15,8 11,7 18,2 14,4 13,6 11,1 6 3 11 6 NE 1018,3 17 60 0,0
15.05.2018 07:00:00 12,6 10,3 13,0 11,6 13,8 11,1 2 1 12 7 W 1018,2 12 60 0,0
15.05.2018 06:00:00 6,9 6,6 5,1 9,7 14,2 11,1 6 3 9 5 ENE 1018,0 2,6 11 0,0
15.05.2018 05:00:00 7,2 7,1 3,8 9,9 14,6 11,1 3 1 8 5 N 1017,9 0,2 0 0,0
15.05.2018 04:00:00 8,2 8,0 4,3 10,6 15,1 11,1 3 2 8 4 NE 1018,1 3,9 0 0,0
15.05.2018 03:00:00 8,4 7,8 5,6 11,3 15,6 11,0 3 1 13 7 NE 1018,1 4,5 0 0,0
15.05.2018 02:00:00 11,6 9,9 8,6 12,1 16,1 11,0 8 4 13 7 ENE 1018,1 14 0 0,0
15.05.2018 01:00:00 12,6 10,2 8,6 12,7 16,7 11,0 7 4 14 7 NNE 1018,3 18 0 0,0

tt = Température de l'air
td = dewpoint
tt 5cm = Température de l'air 5cm
tt -5cm = Température de l'air -5cm
tt -20cm = Température de l'air -20cm
tt -100cm = Température de l'air -100cm
ff = Vitesse du vent
fx = gusts
dd = Direction du vent
ppp = reduced air pressure
vv = visibility
sd = Ensoleillement
rr = Quantités de précipitations

stations d'obs. à proximité